Torna al catalogo

STARLINK-3297

AttivoComunicazioniVLEO
NORAD 50159·PAYLOAD·🇺🇸 United States

Lanciato Dec 18, 2021 da Vandenberg Space Force Base

Loading…

Prossimi Passaggi (prossime 24 ore)

TLE

AggiornatoSource: CelesTrak SupGP

Epoca: Sep 14, 2026, 21:13 UTC

1 50159C 21125D   26257.88451389 -.00017679  00000+0 -53661-3 0  2571
2 50159  53.1564 118.2444 0001384  87.9515 166.0245 15.33548507    17

Traccia STARLINK-3297 in tempo reale con AllMySat

Download on the App Store